When you browse on this site, cookies collect data to enhance your experience and personalize the content and advertising you see.
Visit our Privacy Policy to learn more. By continuing to use the site, you agree to this use of cookies and data.
  • In Hungary
  • List of Countries
  • For 7 days
  • Water Temperature
  • Weather Map
  • News
  • Weather Widgets
  • user-avatar
    Login

    Hourly Weather Kyzyltu

    Today, 7 December, Saturday

    Time Temperature Precipitation Wind Pressure Humidity
    00:00 +6°C° 0 mm 2 mps 744 mmHg 80%
    01:00 +6°C° 0 mm 2 mps 743 mmHg 81%
    02:00 +6°C° 0 mm 2 mps 743 mmHg 82%
    03:00 +5°C° 0 mm 2 mps 743 mmHg 83%
    04:00 +5°C° 0 mm 2 mps 743 mmHg 83%
    05:00 +5°C° 0 mm 2 mps 742 mmHg 84%
    06:00 +5°C° 0 mm 2 mps 742 mmHg 84%
    07:00 +5°C° 0 mm 2 mps 742 mmHg 84%
    08:00 +5°C° 0 mm 2 mps 742 mmHg 83%
    09:00 +8°C° 0 mm 1 mps 742 mmHg 76%
    10:00 +10°C° 0 mm 1 mps 742 mmHg 69%
    11:00 +11°C° 0 mm 1 mps 742 mmHg 61%
    12:00 +12°C° 0 mm 1 mps 742 mmHg 59%
    13:00 +13°C° 0 mm 1 mps 741 mmHg 56%
    14:00 +14°C° 0 mm 2 mps 740 mmHg 53%
    15:00 +13°C° 0 mm 2 mps 740 mmHg 57%
    16:00 +12°C° 0 mm 2 mps 740 mmHg 62%
    17:00 +10°C° 0 mm 2 mps 740 mmHg 66%
    18:00 +9°C° 0 mm 2 mps 740 mmHg 69%
    19:00 +9°C° 0 mm 2 mps 740 mmHg 71%
    20:00 +8°C° 0 mm 2 mps 740 mmHg 73%
    21:00 +8°C° 0 mm 2 mps 740 mmHg 73%
    22:00 +8°C° 0 mm 1 mps 740 mmHg 73%
    23:00 +8°C° 0 mm 1 mps 740 mmHg 73%

    Tomorrow, 8 December, Sunday

    Time Temperature Precipitation Wind Pressure Humidity
    00:00 +8°C° 0 mm 1 mps 739 mmHg 73%
    01:00 +8°C° 0 mm 1 mps 739 mmHg 72%
    02:00 +8°C° 0 mm 1 mps 738 mmHg 72%
    03:00 +8°C° 0 mm 1 mps 738 mmHg 71%
    04:00 +7°C° 0 mm 1 mps 738 mmHg 70%
    05:00 +7°C° 0 mm 1 mps 737 mmHg 69%
    06:00 +7°C° 0 mm 1 mps 737 mmHg 67%
    07:00 +7°C° 0 mm 1 mps 737 mmHg 66%
    08:00 +7°C° 0 mm 1 mps 737 mmHg 64%
    09:00 +9°C° 0 mm 1 mps 737 mmHg 57%
    10:00 +10°C° 0 mm 1 mps 737 mmHg 50%
    11:00 +12°C° 0 mm 1 mps 737 mmHg 44%
    12:00 +13°C° 0 mm 1 mps 736 mmHg 41%
    13:00 +14°C° 0 mm 1 mps 736 mmHg 38%
    14:00 +15°C° 0 mm 1 mps 735 mmHg 35%
    15:00 +14°C° 0 mm 1 mps 735 mmHg 39%
    16:00 +13°C° 0 mm 1 mps 734 mmHg 43%
    17:00 +11°C° 0 mm 1 mps 734 mmHg 47%
    18:00 +11°C° 0 mm 1 mps 734 mmHg 49%
    19:00 +10°C° 0 mm 1 mps 734 mmHg 51%
    20:00 +10°C° 0 mm 1 mps 733 mmHg 54%
    21:00 +9°C° 0 mm 1 mps 733 mmHg 54%
    22:00 +9°C° 0 mm 1 mps 733 mmHg 54%
    23:00 +9°C° 0 mm 1 mps 732 mmHg 54%

    Day after tomorrow, 9 December, Monday

    Time Temperature Precipitation Wind Pressure Humidity
    00:00 +8°C° 0 mm 1 mps 732 mmHg 54%
    01:00 +8°C° 0 mm 1 mps 732 mmHg 53%
    02:00 +8°C° 0 mm 1 mps 732 mmHg 53%
    03:00 +8°C° 0 mm 1 mps 731 mmHg 53%
    04:00 +8°C° 0 mm 1 mps 731 mmHg 54%
    05:00 +7°C° 0 mm 1 mps 731 mmHg 54%
    06:00 +7°C° 0 mm 1 mps 731 mmHg 54%
    07:00 +7°C° 0 mm 1 mps 731 mmHg 53%
    08:00 +7°C° 0 mm 1 mps 731 mmHg 52%
    09:00 +9°C° 0 mm 1 mps 731 mmHg 48%
    10:00 +11°C° 0 mm 1 mps 732 mmHg 43%
    11:00 +12°C° 0 mm 2 mps 732 mmHg 39%
    12:00 +13°C° 0 mm 1 mps 731 mmHg 37%
    13:00 +14°C° 0 mm 1 mps 731 mmHg 35%
    14:00 +15°C° 0 mm 1 mps 731 mmHg 33%
    15:00 +13°C° 0 mm 0 mps 731 mmHg 35%
    16:00 +12°C° 0 mm 0 mps 731 mmHg 38%
    17:00 +11°C° 0 mm 0 mps 731 mmHg 40%
    18:00 +11°C° 0 mm 0 mps 731 mmHg 42%
    19:00 +11°C° 0 mm 1 mps 732 mmHg 43%
    20:00 +10°C° 0 mm 2 mps 732 mmHg 45%
    21:00 +10°C° 0 mm 2 mps 732 mmHg 44%
    22:00 +10°C° 0 mm 3 mps 733 mmHg 43%
    23:00 +10°C° 0 mm 3 mps 733 mmHg 42%

    10 December, Tuesday

    Time Temperature Precipitation Wind Pressure Humidity
    00:00 +10°C° 0 mm 3 mps 733 mmHg 42%
    01:00 +10°C° 0 mm 3 mps 733 mmHg 42%
    02:00 +10°C° 0 mm 2 mps 733 mmHg 42%
    03:00 +10°C° 0 mm 2 mps 732 mmHg 40%
    04:00 +10°C° 0 mm 2 mps 732 mmHg 39%
    05:00 +10°C° 0 mm 2 mps 732 mmHg 37%
    06:00 +9°C° 0 mm 2 mps 732 mmHg 37%
    07:00 +10°C° 0 mm 1 mps 732 mmHg 37%
    08:00 +10°C° 0 mm 1 mps 732 mmHg 37%
    09:00 +11°C° 0 mm 1 mps 733 mmHg 34%
    10:00 +13°C° 0 mm 1 mps 733 mmHg 31%
    11:00 +14°C° 0 mm 1 mps 733 mmHg 28%
    12:00 +15°C° 0 mm 2 mps 733 mmHg 29%
    13:00 +16°C° 0 mm 2 mps 733 mmHg 29%
    14:00 +16°C° 0 mm 2 mps 732 mmHg 29%
    15:00 +15°C° 0 mm 2 mps 732 mmHg 34%
    16:00 +14°C° 0 mm 2 mps 732 mmHg 38%
    17:00 +13°C° 0 mm 2 mps 732 mmHg 43%
    18:00 +13°C° 0 mm 2 mps 732 mmHg 44%
    19:00 +12°C° 0 mm 2 mps 732 mmHg 46%
    20:00 +12°C° 0 mm 2 mps 732 mmHg 47%
    21:00 +12°C° 0 mm 2 mps 732 mmHg 48%
    22:00 +12°C° 0 mm 2 mps 733 mmHg 48%
    23:00 +10°C° 0 mm 2 mps 733 mmHg 49%

    11 December, Wednesday

    Time Temperature Precipitation Wind Pressure Humidity
    00:00 +10°C° 0 mm 2 mps 733 mmHg 50%
    01:00 +11°C° 0 mm 1 mps 732 mmHg 51%
    02:00 +10°C° 0 mm 1 mps 732 mmHg 52%
    03:00 +10°C° 0 mm 1 mps 732 mmHg 54%
    04:00 +9°C° 0 mm 2 mps 732 mmHg 55%
    05:00 +8°C° 0 mm 2 mps 732 mmHg 57%
    06:00 +8°C° 0 mm 2 mps 732 mmHg 57%
    07:00 +8°C° 0 mm 2 mps 732 mmHg 58%
    08:00 +8°C° 0 mm 2 mps 732 mmHg 58%
    09:00 +9°C° 0 mm 2 mps 732 mmHg 54%
    10:00 +10°C° 0 mm 2 mps 732 mmHg 50%
    11:00 +12°C° 0 mm 2 mps 732 mmHg 47%
    12:00 +13°C° 0 mm 2 mps 732 mmHg 45%
    13:00 +14°C° 0 mm 1 mps 731 mmHg 43%
    14:00 +14°C° 0 mm 1 mps 730 mmHg 41%
    15:00 +13°C° 0 mm 1 mps 730 mmHg 45%
    16:00 +13°C° 0 mm 1 mps 730 mmHg 48%
    17:00 +12°C° 0 mm 1 mps 730 mmHg 52%
    18:00 +11°C° 0 mm 1 mps 730 mmHg 54%
    19:00 +11°C° 0 mm 1 mps 730 mmHg 56%
    20:00 +10°C° 0 mm 1 mps 729 mmHg 58%
    21:00 +10°C° 0 mm 1 mps 729 mmHg 59%
    22:00 +9°C° 0 mm 0 mps 729 mmHg 60%
    23:00 +8°C° 0 mm 0 mps 729 mmHg 61%

    12 December, Thursday

    Time Temperature Precipitation Wind Pressure Humidity
    00:00 +8°C° 0 mm 0 mps 728 mmHg 61%
    01:00 +8°C° 0 mm 0 mps 728 mmHg 61%
    02:00 +8°C° 0 mm 0 mps 728 mmHg 62%
    03:00 +8°C° 0 mm 1 mps 728 mmHg 63%
    04:00 +8°C° 0 mm 1 mps 728 mmHg 65%
    05:00 +8°C° 0 mm 1 mps 728 mmHg 66%
    06:00 +8°C° 0 mm 1 mps 728 mmHg 67%
    07:00 +8°C° 0 mm 1 mps 729 mmHg 69%
    08:00 +7°C° 0 mm 1 mps 729 mmHg 70%
    09:00 +8°C° 0 mm 1 mps 729 mmHg 66%
    10:00 +8°C° 0 mm 2 mps 730 mmHg 62%
    11:00 +9°C° 0 mm 2 mps 730 mmHg 58%
    12:00 +10°C° 0 mm 2 mps 730 mmHg 54%
    13:00 +10°C° 0 mm 2 mps 730 mmHg 50%
    14:00 +12°C° 0 mm 2 mps 730 mmHg 46%
    15:00 +10°C° 0 mm 2 mps 730 mmHg 47%
    16:00 +11°C° 0 mm 1 mps 730 mmHg 49%
    17:00 +10°C° 0 mm 1 mps 730 mmHg 51%
    18:00 +10°C° 0 mm 1 mps 731 mmHg 52%
    19:00 +10°C° 0 mm 1 mps 731 mmHg 54%
    20:00 +10°C° 0 mm 1 mps 732 mmHg 56%
    21:00 +9°C° 0 mm 1 mps 732 mmHg 57%
    22:00 +9°C° 0 mm 1 mps 732 mmHg 59%
    23:00 +9°C° 0 mm 1 mps 732 mmHg 60%
    Show more